Total_Precipitation_Accumulation
0.00 0.00 0.00 0.00 0.00 0.00 0.01 0.05 0.11 0.15 0.22 0.26 0.25 0.29 0.34 0.40 0.63 1.05 0.50 0.29 0.23 0.14 0.06 0.04 0.05 0.06 0.07 0.10 0.13 0.16 0.15 0.14 0.12 0.13 0.12 0.12 0.12 0.12 0.14 0.14 0.17 0.23 0.26 0.24 0.24 0.27 0.26 0.23 0.18
0.00 0.00 0.00 0.00 0.00 0.00 0.03 0.08 0.15 0.16 0.20 0.25 0.27 0.27 0.25 0.27 0.27 0.27 0.28 0.24 0.17 0.11 0.08 0.05 0.05 0.06 0.06 0.08 0.10 0.14 0.17 0.19 0.19 0.20 0.15 0.13 0.13 0.14 0.14 0.15 0.17 0.21 0.22 0.21 0.20 0.19 0.17 0.15 0.13
0.00 0.00 0.00 0.00 0.00 0.01 0.06 0.15 0.21 0.18 0.20 0.23 0.34 0.39 0.36 0.34 0.32 0.30 0.27 0.22 0.16 0.12 0.13 0.10 0.08 0.07 0.06 0.06 0.09 0.16 0.19 0.21 0.22 0.22 0.19 0.15 0.13 0.13 0.16 0.20 0.23 0.25 0.25 0.27 0.26 0.21 0.15 0.12 0.13
0.00 0.00 0.00 0.00 0.01 0.02 0.06 0.13 0.19 0.19 0.25 0.25 0.29 0.39 0.42 0.39 0.33 0.32 0.31 0.27 0.16 0.12 0.12 0.11 0.12 0.10 0.09 0.09 0.10 0.16 0.23 0.24 0.23 0.22 0.22 0.20 0.17 0.15 0.20 0.27 0.30 0.30 0.29 0.34 0.39 0.33 0.23 0.16 0.14
0.00 0.00 0.00 0.01 0.01 0.04 0.08 0.11 0.14 0.19 0.24 0.26 0.30 0.46 0.66 0.67 0.48 0.42 0.37 0.35 0.25 0.16 0.13 0.16 0.18 0.16 0.15 0.15 0.18 0.22 0.26 0.28 0.29 0.28 0.27 0.27 0.21 0.18 0.24 0.32 0.36 0.36 0.34 0.34 0.31 0.25 0.20 0.17 0.16
0.00 0.00 0.00 0.01 0.04 0.07 0.10 0.11 0.11 0.16 0.25 0.31 0.38 0.61 0.98 1.02 0.80 0.66 0.51 0.53 0.45 0.29 0.18 0.21 0.24 0.26 0.25 0.25 0.28 0.31 0.30 0.31 0.32 0.32 0.32 0.29 0.22 0.20 0.25 0.33 0.40 0.45 0.41 0.33 0.25 0.19 0.15 0.15 0.16
0.00 0.00 0.01 0.01 0.04 0.09 0.11 0.10 0.12 0.17 0.26 0.40 0.45 0.66 0.99 1.07 0.94 0.78 0.74 0.75 0.66 0.55 0.40 0.31 0.31 0.34 0.35 0.34 0.34 0.37 0.37 0.35 0.34 0.33 0.31 0.29 0.26 0.22 0.27 0.35 0.39 0.39 0.32 0.27 0.24 0.19 0.15 0.12 0.11
0.00 0.00 0.01 0.01 0.02 0.07 0.12 0.13 0.17 0.20 0.35 0.42 0.44 0.67 1.12 1.18 0.99 0.90 0.99 0.94 0.94 1.06 1.19 0.77 0.45 0.37 0.35 0.36 0.43 0.48 0.50 0.48 0.43 0.37 0.31 0.29 0.28 0.29 0.34 0.35 0.35 0.33 0.26 0.22 0.21 0.18 0.15 0.13 0.12
0.00 0.00 0.01 0.01 0.02 0.08 0.14 0.16 0.21 0.22 0.39 0.41 0.34 0.55 1.00 1.06 0.93 0.97 1.16 1.31 1.20 1.36 1.58 1.05 0.73 0.61 0.57 0.58 0.56 0.60 0.61 0.57 0.52 0.45 0.42 0.40 0.44 0.57 0.61 0.49 0.48 0.38 0.32 0.29 0.28 0.24 0.20 0.18 0.16
0.00 0.00 0.01 0.02 0.03 0.09 0.16 0.16 0.22 0.30 0.38 0.44 0.42 0.46 0.72 1.02 1.10 1.09 1.24 1.70 1.70 1.47 1.31 1.26 1.20 1.02 0.88 0.85 0.88 0.86 0.75 0.72 0.65 0.70 0.59 0.65 0.98 1.09 0.94 0.89 0.76 0.62 0.51 0.43 0.42 0.41 0.34 0.26 0.23
0.00 0.00 0.02 0.05 0.06 0.10 0.10 0.15 0.24 0.39 0.43 0.47 0.57 0.66 0.91 1.12 1.22 1.32 1.44 1.75 2.06 2.04 1.54 1.40 1.35 1.26 1.14 1.20 1.28 1.26 1.17 1.15 1.04 1.11 0.96 1.06 1.19 1.15 1.16 1.20 1.05 0.95 0.82 0.81 0.83 0.66 0.52 0.48 0.51
0.00 0.01 0.03 0.09 0.10 0.07 0.07 0.17 0.21 0.28 0.49 0.62 0.73 0.86 1.10 1.19 1.34 1.66 1.71 1.88 2.07 2.24 1.99 1.57 1.55 1.58 1.71 1.75 1.64 1.56 1.58 1.56 1.45 1.48 1.32 1.39 1.52 1.54 1.47 1.58 1.49 1.45 1.34 1.31 1.18 1.05 0.89 0.81 0.70
0.01 0.01 0.02 0.05 0.08 0.09 0.09 0.18 0.24 0.24 0.27 0.46 0.60 0.87 1.16 1.06 1.37 1.80 1.87 2.11 2.26 2.22 2.03 1.85 1.96 1.97 1.97 1.97 2.06 1.94 1.87 2.03 2.01 2.00 1.86 1.82 1.74 1.65 1.64 1.66 1.70 1.65 1.71 1.71 1.61 1.38 1.19 1.04 0.89
0.01 0.01 0.02 0.03 0.05 0.10 0.10 0.16 0.22 0.21 0.22 0.35 0.49 0.66 0.87 1.06 1.31 1.64 1.87 2.28 2.31 2.15 2.15 2.10 2.27 2.12 2.04 2.12 2.27 2.24 2.10 2.28 2.46 2.62 2.53 2.23 2.06 1.96 1.93 2.00 2.01 1.82 1.82 1.91 1.94 1.76 1.54 1.30 1.13
0.01 0.01 0.02 0.03 0.03 0.05 0.08 0.17 0.26 0.23 0.25 0.30 0.45 0.56 0.71 0.99 1.24 1.69 1.96 2.30 2.33 2.24 2.14 2.17 2.07 2.19 2.29 2.38 2.35 2.30 2.34 2.48 2.65 2.79 2.86 2.57 2.26 2.25 2.20 2.30 2.31 2.01 1.93 2.06 2.16 2.07 1.92 1.58 1.34
0.02 0.02 0.03 0.05 0.05 0.06 0.10 0.27 0.41 0.41 0.33 0.33 0.44 0.49 0.68 1.05 1.26 1.64 1.92 2.12 2.14 2.26 2.46 2.38 2.04 2.24 2.38 2.42 2.41 2.31 2.41 2.61 2.76 2.77 2.89 2.77 2.45 2.34 2.35 2.28 2.18 2.12 2.19 2.37 2.53 2.44 2.36 2.09 1.84
0.02 0.04 0.07 0.07 0.08 0.09 0.13 0.30 0.45 0.45 0.36 0.38 0.44 0.55 0.72 0.98 1.29 1.60 1.89 2.21 2.28 2.49 2.88 2.57 2.16 2.22 2.31 2.47 2.61 2.48 2.52 2.79 3.01 3.08 2.94 2.65 2.46 2.46 2.55 2.55 2.51 2.45 2.49 2.55 2.51 2.65 2.49 2.52 2.33
0.02 0.04 0.11 0.12 0.12 0.12 0.13 0.24 0.39 0.51 0.50 0.50 0.53 0.67 0.87 0.94 1.07 1.27 1.68 2.09 2.33 2.72 3.21 2.81 2.31 2.34 2.50 2.47 2.46 2.62 2.80 3.08 3.30 3.23 3.03 2.87 2.86 2.84 2.89 2.86 2.92 2.95 2.99 2.83 2.75 2.72 2.54 2.44 2.37
0.02 0.04 0.09 0.13 0.12 0.13 0.18 0.29 0.40 0.54 0.59 0.54 0.62 0.81 0.82 0.82 0.93 1.08 1.52 1.96 2.32 2.76 3.02 2.96 2.72 2.75 2.85 2.92 2.70 2.86 3.14 3.47 3.71 3.64 3.54 3.51 3.45 3.39 3.38 3.38 3.34 3.23 3.16 3.02 2.85 2.67 2.57 2.41 2.19
0.02 0.04 0.07 0.08 0.07 0.09 0.20 0.39 0.57 0.64 0.76 0.72 0.72 0.88 0.83 0.82 0.95 1.17 1.56 1.85 2.26 2.61 2.74 2.98 3.03 2.99 2.84 3.15 3.38 3.60 3.91 4.07 4.34 4.59 4.65 4.52 4.29 4.05 3.86 3.78 3.57 3.26 3.08 2.96 2.78 2.61 2.48 2.27 2.10
0.01 0.01 0.05 0.08 0.07 0.11 0.25 0.61 0.77 0.89 0.89 0.92 0.92 1.07 1.07 1.08 1.18 1.37 1.59 1.76 2.03 2.41 2.67 2.95 3.18 3.19 3.10 3.54 4.11 4.54 4.80 4.81 4.87 4.93 4.99 4.93 4.51 4.15 3.87 3.57 3.38 3.16 2.98 2.84 2.76 2.61 2.48 2.29 2.11
0.00 0.01 0.02 0.05 0.08 0.18 0.24 0.59 0.89 1.02 1.09 1.03 1.06 1.06 1.19 1.08 1.08 1.25 1.46 1.81 1.89 2.17 2.43 2.66 3.00 3.36 3.66 4.08 4.61 5.16 5.44 5.58 5.49 5.18 4.93 4.61 4.20 3.82 3.38 3.14 3.13 2.97 2.76 2.58 2.40 2.24 2.18 2.13 2.04
0.01 0.01 0.02 0.05 0.08 0.17 0.23 0.43 0.82 1.06 1.08 1.07 1.10 1.08 1.08 1.03 0.96 1.05 1.19 1.45 1.69 1.91 2.15 2.46 2.80 3.19 3.82 4.62 5.19 5.58 5.88 5.84 5.43 4.95 4.39 3.94 3.59 3.29 3.01 2.79 2.79 2.70 2.45 2.20 1.95 1.78 1.71 1.72 1.77
0.00 0.01 0.04 0.08 0.11 0.25 0.22 0.40 0.83 1.07 1.10 1.17 1.13 1.14 1.15 1.08 1.02 1.01 1.04 1.23 1.43 1.60 1.86 2.21 2.63 2.96 3.51 4.24 4.88 5.19 5.40 5.34 4.98 4.35 3.82 3.43 3.05 2.74 2.48 2.22 2.08 1.95 1.78 1.66 1.55 1.43 1.39 1.37 1.44
0.01 0.02 0.12 0.24 0.27 0.28 0.25 0.45 0.88 1.06 1.13 1.20 1.23 1.27 1.21 1.15 1.10 1.04 0.98 1.05 1.20 1.34 1.57 1.80 2.17 2.65 3.03 3.41 3.96 4.14 4.18 4.01 3.64 3.36 3.14 2.76 2.38 2.08 1.84 1.65 1.52 1.44 1.35 1.30 1.29 1.27 1.24 1.16 1.14
0.01 0.02 0.15 0.28 0.33 0.40 0.48 0.78 1.17 1.16 1.21 1.22 1.22 1.18 1.14 1.13 1.02 0.98 0.92 0.97 1.12 1.25 1.46 1.62 1.84 2.22 2.53 2.65 2.83 2.84 2.76 2.69 2.56 2.36 2.13 1.89 1.65 1.51 1.39 1.23 1.14 1.12 1.14 1.11 1.09 1.05 1.00 0.94 0.86
0.02 0.03 0.07 0.12 0.19 0.36 0.67 1.03 1.41 1.54 1.44 1.30 1.27 1.16 1.09 1.08 0.99 0.97 0.91 0.94 1.07 1.17 1.33 1.40 1.41 1.55 1.66 1.73 1.81 1.89 1.88 1.77 1.75 1.68 1.50 1.36 1.20 1.07 0.99 0.90 0.87 0.84 0.80 0.75 0.72 0.71 0.73 0.75 0.75
0.02 0.03 0.06 0.12 0.26 0.47 0.75 1.19 1.47 1.74 1.64 1.35 1.20 1.09 1.02 1.01 1.00 0.99 0.96 0.95 0.94 0.96 1.04 1.14 1.16 1.16 1.17 1.20 1.18 1.27 1.27 1.19 1.11 1.03 0.96 0.87 0.77 0.67 0.63 0.59 0.58 0.59 0.61 0.58 0.56 0.57 0.61 0.63 0.64
0.05 0.06 0.07 0.14 0.20 0.37 0.76 1.28 1.42 1.81 1.82 1.61 1.34 1.11 1.07 1.13 1.10 1.04 0.99 0.93 0.85 0.82 0.82 0.90 0.94 0.97 1.01 1.02 0.99 0.98 0.95 0.87 0.80 0.76 0.70 0.61 0.54 0.51 0.49 0.48 0.47 0.48 0.51 0.55 0.58 0.61 0.62 0.68 0.66
0.08 0.09 0.11 0.25 0.27 0.28 0.67 1.45 1.53 1.63 1.76 1.75 1.61 1.37 1.22 1.17 1.11 1.02 0.95 0.91 0.82 0.76 0.71 0.73 0.76 0.73 0.78 0.82 0.87 0.87 0.80 0.74 0.70 0.64 0.59 0.55 0.49 0.47 0.48 0.48 0.46 0.43 0.42 0.45 0.51 0.56 0.59 0.66 0.65